Time,TemperatureF,DewpointF,PressureIn,WindDirection,WindDirectionDegrees,WindSpeedMPH,WindSpeedGustMPH,Humidity,HourlyPrecipIn,Conditions,Clouds,dailyrainin,SoftwareType,DateUTC
2013-08-24 00:01:00,80.0,76.8,29.92,ENE,78,0.0,0.0,90,0.00,CLR,,0.00,WeatherDisplay:10.37,2013-08-24 05:01:00,
2013-08-24 00:06:00,80.0,76.8,29.92,East,79,2.3,2.3,90,0.00,CLR,,0.00,WeatherDisplay:10.37,2013-08-24 05:06:00,
2013-08-24 00:11:00,80.1,76.9,29.92,East,79,1.1,1.1,90,0.00,CLR,,0.00,WeatherDisplay:10.37,2013-08-24 05:11:00,
2013-08-24 00:16:00,80.1,76.9,29.92,East,79,0.0,0.0,90,0.00,CLR,,0.00,WeatherDisplay:10.37,2013-08-24 05:16:00,
2013-08-24 00:21:00,80.1,77.2,29.92,East,79,1.1,1.1,91,0.00,CLR,,0.00,WeatherDisplay:10.37,2013-08-24 05:21:00,
2013-08-24 00:26:00,80.2,77.3,29.92,East,79,1.1,1.1,91,0.00,CLR,,0.00,WeatherDisplay:10.37,2013-08-24 05:26:00,
2013-08-24 00:31:00,80.3,77.4,29.92,East,79,1.1,1.1,91,0.00,CLR,,0.00,WeatherDisplay:10.37,2013-08-24 05:31:00,
2013-08-24 00:36:00,80.3,77.4,29.92,East,79,0.0,0.0,91,0.00,CLR,,0.00,WeatherDisplay:10.37,2013-08-24 05:36:00,
2013-08-24 00:41:00,80.3,77.4,29.92,East,79,1.1,1.1,91,0.00,CLR,,0.00,WeatherDisplay:10.37,2013-08-24 05:41:00,
2013-08-24 00:46:00,80.2,77.3,29.92,East,79,1.1,1.1,91,0.00,CLR,,0.00,WeatherDisplay:10.37,2013-08-24 05:46:00,
2013-08-24 00:51:00,80.2,77.3,29.92,East,79,0.0,0.0,91,0.00,CLR,,0.00,WeatherDisplay:10.37,2013-08-24 05:51:00,
2013-08-24 00:56:00,80.2,77.3,29.92,East,79,0.0,0.0,91,0.00,CLR,,0.00,WeatherDisplay:10.37,2013-08-24 05:56:00,
2013-08-24 01:01:00,80.2,77.3,29.92,East,79,0.0,0.0,91,0.00,CLR,,0.00,WeatherDisplay:10.37,2013-08-24 06:01:00,
2013-08-24 01:06:00,80.2,77.3,29.92,East,79,0.0,0.0,91,0.00,CLR,,0.00,WeatherDisplay:10.37,2013-08-24 06:06:00,
2013-08-24 01:11:00,80.2,77.3,29.92,East,79,0.0,0.0,91,0.00,CLR,,0.00,WeatherDisplay:10.37,2013-08-24 06:11:00,
2013-08-24 01:16:00,80.1,77.2,29.92,East,79,0.0,0.0,91,0.00,CLR,,0.00,WeatherDisplay:10.37,2013-08-24 06:16:00,
2013-08-24 01:21:00,80.1,77.2,29.92,East,79,0.0,0.0,91,0.00,CLR,,0.00,WeatherDisplay:10.37,2013-08-24 06:21:00,
2013-08-24 01:26:00,80.1,77.6,29.92,East,79,1.1,1.1,92,0.00,CLR,,0.00,WeatherDisplay:10.37,2013-08-24 06:26:00,
2013-08-24 01:31:00,80.0,77.1,29.92,East,79,0.0,0.0,91,0.00,CLR,,0.00,WeatherDisplay:10.37,2013-08-24 06:31:00,
2013-08-24 01:36:00,79.9,77.0,29.92,East,79,0.0,0.0,91,0.00,CLR,,0.00,WeatherDisplay:10.37,2013-08-24 06:36:00,
2013-08-24 01:41:00,79.8,77.3,29.92,East,79,0.0,0.0,92,0.00,CLR,,0.00,WeatherDisplay:10.37,2013-08-24 06:41:00,
2013-08-24 01:46:00,79.7,77.2,29.91,East,79,0.0,0.0,92,0.00,CLR,,0.00,WeatherDisplay:10.37,2013-08-24 06:46:00,
2013-08-24 01:51:00,79.6,77.1,29.91,East,79,2.1,0.0,92,0.00,CLR,,0.00,WeatherDisplay:10.37,2013-08-24 06:51:00,
2013-08-24 01:56:00,79.5,77.0,29.91,East,79,1.1,0.0,92,0.00,CLR,,0.00,WeatherDisplay:10.37,2013-08-24 06:56:00,
2013-08-24 02:01:00,79.5,77.0,29.91,East,79,0.0,0.0,92,0.00,CLR,,0.00,WeatherDisplay:10.37,2013-08-24 07:01:00,
2013-08-24 02:06:00,79.4,76.9,29.91,East,79,0.0,0.0,92,0.00,CLR,,0.00,WeatherDisplay:10.37,2013-08-24 07:06:00,
2013-08-24 02:11:00,79.4,76.9,29.91,East,79,1.1,1.1,92,0.00,CLR,,0.00,WeatherDisplay:10.37,2013-08-24 07:11:00,
2013-08-24 02:16:00,79.4,76.9,29.91,East,79,0.0,0.0,92,0.00,CLR,,0.00,WeatherDisplay:10.37,2013-08-24 07:16:00,
2013-08-24 02:21:00,79.4,76.9,29.91,East,79,0.0,0.0,92,0.00,CLR,,0.00,WeatherDisplay:10.37,2013-08-24 07:21:00,
2013-08-24 02:26:00,79.5,77.0,29.90,East,79,0.0,0.0,92,0.00,CLR,,0.00,WeatherDisplay:10.37,2013-08-24 07:26:00,
2013-08-24 02:31:00,79.5,77.0,29.91,East,79,0.0,0.0,92,0.00,CLR,,0.00,WeatherDisplay:10.37,2013-08-24 07:31:00,
2013-08-24 02:36:00,79.5,77.0,29.91,East,79,0.0,0.0,92,0.00,CLR,,0.00,WeatherDisplay:10.37,2013-08-24 07:36:00,
2013-08-24 02:41:00,79.4,76.9,29.91,East,79,0.0,0.0,92,0.00,CLR,,0.00,WeatherDisplay:10.37,2013-08-24 07:41:00,
2013-08-24 02:46:00,79.4,76.9,29.91,East,79,0.0,0.0,92,0.00,CLR,,0.00,WeatherDisplay:10.37,2013-08-24 07:46:00,
2013-08-24 02:51:00,79.4,76.9,29.91,East,79,0.0,0.0,92,0.00,CLR,,0.00,WeatherDisplay:10.37,2013-08-24 07:51:00,
2013-08-24 02:56:00,79.4,77.2,29.91,East,79,0.0,0.0,93,0.00,CLR,,0.00,WeatherDisplay:10.37,2013-08-24 07:56:00,
2013-08-24 03:01:00,79.3,77.1,29.91,East,79,0.0,0.0,93,0.00,CLR,,0.00,WeatherDisplay:10.37,2013-08-24 08:01:00,
2013-08-24 03:06:00,79.3,77.1,29.91,East,79,0.0,0.0,93,0.00,CLR,,0.00,WeatherDisplay:10.37,2013-08-24 08:06:00,
2013-08-24 03:11:00,79.1,76.6,29.91,East,79,0.0,0.0,92,0.00,CLR,,0.00,WeatherDisplay:10.37,2013-08-24 08:11:00,
2013-08-24 03:16:00,78.9,76.7,29.90,East,79,0.0,0.0,93,0.00,CLR,,0.00,WeatherDisplay:10.37,2013-08-24 08:16:00,
2013-08-24 03:21:00,78.7,76.5,29.90,East,79,0.0,0.0,93,0.00,CLR,,0.00,WeatherDisplay:10.37,2013-08-24 08:21:00,
2013-08-24 03:26:00,78.6,76.4,29.90,East,79,0.0,0.0,93,0.00,CLR,,0.00,WeatherDisplay:10.37,2013-08-24 08:26:00,
2013-08-24 03:31:00,78.5,76.3,29.90,East,79,0.0,0.0,93,0.00,CLR,,0.00,WeatherDisplay:10.37,2013-08-24 08:31:00,
2013-08-24 03:36:00,78.4,76.2,29.90,East,79,0.0,0.0,93,0.00,CLR,,0.00,WeatherDisplay:10.37,2013-08-24 08:36:00,
2013-08-24 03:41:00,78.2,76.3,29.90,East,79,0.0,0.0,94,0.00,CLR,,0.00,WeatherDisplay:10.37,2013-08-24 08:41:00,
2013-08-24 03:46:00,78.1,76.2,29.90,East,79,0.0,0.0,94,0.00,CLR,,0.00,WeatherDisplay:10.37,2013-08-24 08:46:00,
2013-08-24 03:51:00,77.9,76.0,29.90,East,79,0.0,0.0,94,0.00,CLR,,0.00,WeatherDisplay:10.37,2013-08-24 08:51:00,
2013-08-24 03:56:00,77.7,75.8,29.90,East,79,0.0,0.0,94,0.00,CLR,,0.00,WeatherDisplay:10.37,2013-08-24 08:56:00,
2013-08-24 04:01:00,77.5,75.6,29.91,East,79,0.0,0.0,94,0.00,CLR,,0.00,WeatherDisplay:10.37,2013-08-24 09:01:00,
2013-08-24 04:06:00,77.4,75.9,29.91,East,79,0.0,0.0,95,0.00,CLR,,0.00,WeatherDisplay:10.37,2013-08-24 09:06:00,
2013-08-24 04:11:00,77.2,75.7,29.91,East,79,0.0,0.0,95,0.00,CLR,,0.00,WeatherDisplay:10.37,2013-08-24 09:11:00,
2013-08-24 04:16:00,77.0,75.5,29.91,East,79,1.1,1.1,95,0.00,CLR,,0.00,WeatherDisplay:10.37,2013-08-24 09:16:00,
2013-08-24 04:21:00,76.9,75.4,29.90,East,79,0.0,0.0,95,0.00,CLR,,0.00,WeatherDisplay:10.37,2013-08-24 09:21:00,
2013-08-24 04:26:00,76.8,75.3,29.90,East,79,0.0,0.0,95,0.00,CLR,,0.00,WeatherDisplay:10.37,2013-08-24 09:26:00,
2013-08-24 04:31:00,76.8,75.6,29.90,East,79,0.0,0.0,96,0.00,CLR,,0.00,WeatherDisplay:10.37,2013-08-24 09:31:00,
2013-08-24 04:36:00,76.7,75.5,29.90,East,79,1.1,1.1,96,0.00,CLR,,0.00,WeatherDisplay:10.37,2013-08-24 09:36:00,
2013-08-24 04:41:00,76.7,75.5,29.90,East,79,0.0,0.0,96,0.00,CLR,,0.00,WeatherDisplay:10.37,2013-08-24 09:41:00,
2013-08-24 04:46:00,76.6,75.4,29.90,East,79,1.1,0.0,96,0.00,CLR,,0.00,WeatherDisplay:10.37,2013-08-24 09:46:00,
2013-08-24 04:51:00,76.6,75.4,29.90,East,79,0.0,0.0,96,0.00,CLR,,0.00,WeatherDisplay:10.37,2013-08-24 09:51:00,
2013-08-24 04:56:00,76.6,75.4,29.90,East,79,0.0,0.0,96,0.00,CLR,,0.00,WeatherDisplay:10.37,2013-08-24 09:56:00,
2013-08-24 05:01:00,76.5,75.3,29.90,East,79,1.1,1.1,96,0.00,CLR,,0.00,WeatherDisplay:10.37,2013-08-24 10:01:00,
2013-08-24 05:06:00,76.4,75.2,29.90,East,79,1.1,0.0,96,0.00,CLR,,0.00,WeatherDisplay:10.37,2013-08-24 10:06:00,
2013-08-24 05:11:00,76.3,75.1,29.90,East,79,0.0,0.0,96,0.00,CLR,,0.00,WeatherDisplay:10.37,2013-08-24 10:11:00,
2013-08-24 05:16:00,76.2,75.3,29.90,East,79,0.0,0.0,97,0.00,CLR,,0.00,WeatherDisplay:10.37,2013-08-24 10:16:00,
2013-08-24 05:21:00,76.1,75.2,29.90,East,79,0.0,0.0,97,0.00,CLR,,0.00,WeatherDisplay:10.37,2013-08-24 10:21:00,
2013-08-24 05:26:00,76.0,75.1,29.90,East,79,0.0,0.0,97,0.00,CLR,,0.00,WeatherDisplay:10.37,2013-08-24 10:26:00,
2013-08-24 05:31:00,76.0,75.1,29.90,East,79,0.0,0.0,97,0.00,CLR,,0.00,WeatherDisplay:10.37,2013-08-24 10:31:00,
2013-08-24 05:36:00,75.9,75.0,29.90,East,79,1.1,0.0,97,0.00,CLR,,0.00,WeatherDisplay:10.37,2013-08-24 10:36:00,
2013-08-24 05:41:00,75.9,75.0,29.90,East,79,0.0,0.0,97,0.00,CLR,,0.00,WeatherDisplay:10.37,2013-08-24 10:41:00,
2013-08-24 05:46:00,75.8,74.9,29.91,East,79,1.1,1.1,97,0.00,CLR,,0.00,WeatherDisplay:10.37,2013-08-24 10:46:00,
2013-08-24 05:51:00,75.7,74.8,29.91,East,79,0.0,0.0,97,0.00,CLR,,0.00,WeatherDisplay:10.37,2013-08-24 10:51:00,
2013-08-24 05:56:00,75.6,74.7,29.91,East,79,0.0,0.0,97,0.00,CLR,,0.00,WeatherDisplay:10.37,2013-08-24 10:56:00,
2013-08-24 06:01:00,75.5,74.6,29.91,East,79,1.1,1.1,97,0.00,CLR,,0.00,WeatherDisplay:10.37,2013-08-24 11:01:00,
2013-08-24 06:06:00,75.4,74.5,29.91,East,79,1.1,1.1,97,0.00,CLR,,0.00,WeatherDisplay:10.37,2013-08-24 11:06:00,
2013-08-24 06:11:00,75.2,74.3,29.91,East,79,0.0,0.0,97,0.00,CLR,,0.00,WeatherDisplay:10.37,2013-08-24 11:11:00,
2013-08-24 06:16:00,75.2,74.3,29.91,NNE,25,2.3,2.3,97,0.00,CLR,,0.00,WeatherDisplay:10.37,2013-08-24 11:16:00,
2013-08-24 06:21:00,75.0,74.1,29.92,NNE,25,1.1,1.1,97,0.00,CLR,,0.00,WeatherDisplay:10.37,2013-08-24 11:21:00,
2013-08-24 06:26:00,74.9,74.0,29.92,NNE,25,2.3,0.0,97,0.00,CLR,,0.00,WeatherDisplay:10.37,2013-08-24 11:26:00,
2013-08-24 06:31:00,74.7,73.8,29.92,NNE,25,1.1,1.1,97,0.00,CLR,,0.00,WeatherDisplay:10.37,2013-08-24 11:31:00,
2013-08-24 06:36:00,74.6,73.7,29.92,NNE,25,1.1,1.1,97,0.00,CLR,,0.00,WeatherDisplay:10.37,2013-08-24 11:36:00,
2013-08-24 06:41:00,74.6,73.7,29.92,NNE,25,0.0,0.0,97,0.00,CLR,,0.00,WeatherDisplay:10.37,2013-08-24 11:41:00,
2013-08-24 06:46:00,74.5,73.6,29.93,NNE,25,0.0,0.0,97,0.00,CLR,,0.00,WeatherDisplay:10.37,2013-08-24 11:46:00,
2013-08-24 06:51:00,74.5,73.9,29.93,NNE,25,1.1,1.1,98,0.00,CLR,,0.00,WeatherDisplay:10.37,2013-08-24 11:51:00,
2013-08-24 06:56:00,74.6,74.0,29.93,NNE,25,1.1,1.1,98,0.00,CLR,,0.00,WeatherDisplay:10.37,2013-08-24 11:56:00,
2013-08-24 07:01:00,74.7,74.1,29.93,NNE,25,2.3,2.3,98,0.00,CLR,,0.00,WeatherDisplay:10.37,2013-08-24 12:01:00,
2013-08-24 07:06:00,74.7,74.1,29.93,NNE,25,1.1,1.1,98,0.00,CLR,,0.00,WeatherDisplay:10.37,2013-08-24 12:06:00,
2013-08-24 07:11:00,74.7,74.1,29.93,NNE,25,1.1,1.1,98,0.00,CLR,,0.00,WeatherDisplay:10.37,2013-08-24 12:11:00,
2013-08-24 07:16:00,74.8,74.2,29.93,NNE,25,2.3,2.3,98,0.00,CLR,,0.00,WeatherDisplay:10.37,2013-08-24 12:16:00,
2013-08-24 07:21:00,74.7,74.1,29.93,NNE,25,1.1,0.0,98,0.00,CLR,,0.00,WeatherDisplay:10.37,2013-08-24 12:21:00,
2013-08-24 07:26:00,74.8,74.2,29.93,NNE,25,1.1,1.1,98,0.00,CLR,,0.00,WeatherDisplay:10.37,2013-08-24 12:26:00,
2013-08-24 07:31:00,74.9,74.3,29.93,NNE,25,2.3,2.3,98,0.00,CLR,,0.00,WeatherDisplay:10.37,2013-08-24 12:31:00,
2013-08-24 07:36:00,75.2,74.6,29.94,NNE,25,1.1,1.1,98,0.00,CLR,,0.00,WeatherDisplay:10.37,2013-08-24 12:36:00,
2013-08-24 07:41:00,75.5,74.9,29.94,NNE,25,2.3,0.0,98,0.00,CLR,,0.00,WeatherDisplay:10.37,2013-08-24 12:41:00,
2013-08-24 07:46:00,75.8,75.2,29.94,NNE,25,1.1,1.1,98,0.00,CLR,,0.00,WeatherDisplay:10.37,2013-08-24 12:46:00,
2013-08-24 07:51:00,76.0,75.4,29.94,NNE,25,2.3,2.3,98,0.00,CLR,,0.00,WeatherDisplay:10.37,2013-08-24 12:51:00,
2013-08-24 07:56:00,76.3,75.7,29.94,NNE,25,1.1,1.1,98,0.00,CLR,,0.00,WeatherDisplay:10.37,2013-08-24 12:56:00,
2013-08-24 08:01:00,76.6,76.0,29.94,NNE,25,2.3,2.3,98,0.00,CLR,,0.00,WeatherDisplay:10.37,2013-08-24 13:01:00,
2013-08-24 08:06:00,76.8,76.2,29.94,NE,55,2.3,2.3,98,0.00,CLR,,0.00,WeatherDisplay:10.37,2013-08-24 13:06:00,
2013-08-24 08:11:00,77.0,76.4,29.95,NE,55,3.5,3.5,98,0.00,CLR,,0.00,WeatherDisplay:10.37,2013-08-24 13:11:00,
2013-08-24 08:16:00,77.2,76.6,29.95,NE,55,1.1,1.1,98,0.00,CLR,,0.00,WeatherDisplay:10.37,2013-08-24 13:16:00,
2013-08-24 08:21:00,77.5,77.2,29.95,NE,55,3.5,3.5,99,0.00,CLR,,0.00,WeatherDisplay:10.37,2013-08-24 13:21:00,
2013-08-24 08:26:00,77.8,77.5,29.95,NE,53,3.5,3.5,99,0.00,CLR,,0.00,WeatherDisplay:10.37,2013-08-24 13:26:00,
2013-08-24 08:31:00,78.2,77.9,29.95,NE,36,4.6,4.6,99,0.00,CLR,,0.00,WeatherDisplay:10.37,2013-08-24 13:31:00,
2013-08-24 08:36:00,78.7,78.4,29.95,NNE,15,4.6,4.6,99,0.00,CLR,,0.00,WeatherDisplay:10.37,2013-08-24 13:36:00,
2013-08-24 08:41:00,79.0,78.4,29.96,North,6,5.8,5.8,98,0.00,CLR,,0.00,WeatherDisplay:10.37,2013-08-24 13:41:00,
2013-08-24 08:46:00,79.4,78.8,29.96,NNE,23,3.5,3.5,98,0.00,CLR,,0.00,WeatherDisplay:10.37,2013-08-24 13:46:00,
2013-08-24 08:51:00,79.9,79.0,29.96,North,359,5.8,5.8,97,0.00,CLR,,0.00,WeatherDisplay:10.37,2013-08-24 13:51:00,
2013-08-24 08:56:00,80.4,79.5,29.96,NE,50,4.6,4.6,97,0.00,CLR,,0.00,WeatherDisplay:10.37,2013-08-24 13:56:00,
2013-08-24 09:01:00,80.8,79.6,29.96,NNE,12,5.8,5.8,96,0.00,CLR,,0.00,WeatherDisplay:10.37,2013-08-24 14:01:00,
2013-08-24 09:06:00,81.3,79.7,29.96,NE,46,6.9,6.9,95,0.00,CLR,,0.00,WeatherDisplay:10.37,2013-08-24 14:06:00,
2013-08-24 09:11:00,81.8,79.9,29.96,NNE,32,6.9,6.9,94,0.00,CLR,,0.00,WeatherDisplay:10.37,2013-08-24 14:11:00,
2013-08-24 09:16:00,82.2,80.0,29.96,North,1,4.6,4.6,93,0.00,CLR,,0.00,WeatherDisplay:10.37,2013-08-24 14:16:00,
2013-08-24 09:21:00,82.7,79.8,29.96,NNE,19,9.4,9.4,91,0.00,CLR,,0.00,WeatherDisplay:10.37,2013-08-24 14:21:00,
2013-08-24 09:26:00,82.8,79.2,29.96,NE,44,8.1,8.1,89,0.00,CLR,,0.00,WeatherDisplay:10.37,2013-08-24 14:26:00,
2013-08-24 09:31:00,82.9,79.0,29.96,North,1,11.5,11.5,88,0.00,CLR,,0.00,WeatherDisplay:10.37,2013-08-24 14:31:00,
2013-08-24 09:36:00,83.3,79.0,29.96,NNW,342,8.1,8.1,87,0.00,CLR,,0.00,WeatherDisplay:10.37,2013-08-24 14:36:00,
2013-08-24 09:41:00,83.6,79.0,29.96,ENE,63,9.2,9.2,86,0.00,CLR,,0.00,WeatherDisplay:10.37,2013-08-24 14:41:00,
2013-08-24 09:46:00,83.8,78.8,29.96,NNE,21,11.5,11.5,85,0.00,CLR,,0.00,WeatherDisplay:10.37,2013-08-24 14:46:00,
2013-08-24 09:51:00,84.1,79.1,29.96,NNE,14,8.1,8.1,85,0.00,CLR,,0.00,WeatherDisplay:10.37,2013-08-24 14:51:00,
2013-08-24 09:56:00,84.5,79.1,29.96,NNE,20,9.2,9.2,84,0.00,CLR,,0.00,WeatherDisplay:10.37,2013-08-24 14:56:00,
2013-08-24 10:01:00,84.5,78.8,29.97,North,11,10.4,10.4,83,0.00,CLR,,0.00,WeatherDisplay:10.37,2013-08-24 15:01:00,
2013-08-24 10:06:00,84.5,78.8,29.97,NNE,16,10.4,10.4,83,0.00,CLR,,0.00,WeatherDisplay:10.37,2013-08-24 15:06:00,
2013-08-24 10:11:00,84.9,79.2,29.96,ENE,60,10.4,10.4,83,0.00,CLR,,0.00,WeatherDisplay:10.37,2013-08-24 15:11:00,
2013-08-24 10:16:00,84.8,78.7,29.96,NE,36,8.1,8.1,82,0.00,CLR,,0.00,WeatherDisplay:10.37,2013-08-24 15:16:00,
2013-08-24 10:21:00,85.2,78.7,29.97,NNE,20,6.9,6.9,81,0.00,CLR,,0.00,WeatherDisplay:10.37,2013-08-24 15:21:00,
2013-08-24 10:26:00,85.8,78.5,29.97,NNE,23,9.2,9.2,79,0.00,CLR,,0.00,WeatherDisplay:10.37,2013-08-24 15:26:00,
2013-08-24 10:31:00,85.9,78.6,29.97,NW,324,10.4,10.4,79,0.00,CLR,,0.00,WeatherDisplay:10.37,2013-08-24 15:31:00,
2013-08-24 10:36:00,86.3,78.6,29.97,North,8,9.2,9.2,78,0.00,CLR,,0.00,WeatherDisplay:10.37,2013-08-24 15:36:00,
2013-08-24 10:41:00,86.4,78.3,29.97,NE,56,12.7,12.7,77,0.00,CLR,,0.00,WeatherDisplay:10.37,2013-08-24 15:41:00,
2013-08-24 10:46:00,86.2,78.5,29.97,North,1,10.4,10.4,78,0.00,CLR,,0.00,WeatherDisplay:10.37,2013-08-24 15:46:00,
2013-08-24 10:51:00,85.8,78.1,29.97,NNE,26,12.7,12.7,78,0.00,CLR,,0.00,WeatherDisplay:10.37,2013-08-24 15:51:00,
2013-08-24 10:56:00,85.9,78.6,29.97,North,1,13.8,13.8,79,0.00,CLR,,0.00,WeatherDisplay:10.37,2013-08-24 15:56:00,
2013-08-24 11:01:00,86.0,78.7,29.97,NNE,25,15.0,15.0,79,0.00,CLR,,0.00,WeatherDisplay:10.37,2013-08-24 16:01:00,
2013-08-24 11:06:00,86.4,78.7,29.97,NE,39,10.4,10.4,78,0.00,CLR,,0.00,WeatherDisplay:10.37,2013-08-24 16:06:00,
2013-08-24 11:11:00,86.6,78.9,29.97,NE,50,12.7,12.7,78,0.00,CLR,,0.00,WeatherDisplay:10.37,2013-08-24 16:11:00,
2013-08-24 11:16:00,86.1,78.4,29.98,NE,45,15.0,15.0,78,0.00,CLR,,0.00,WeatherDisplay:10.37,2013-08-24 16:16:00,
2013-08-24 11:21:00,85.5,78.6,29.98,ENE,63,18.4,18.4,80,0.00,CLR,,0.00,WeatherDisplay:10.37,2013-08-24 16:21:00,
2013-08-24 11:26:00,84.9,78.4,29.97,NNE,30,7.4,7.4,81,0.00,CLR,,0.00,WeatherDisplay:10.37,2013-08-24 16:26:00,
2013-08-24 11:31:00,84.4,77.9,29.97,NNE,32,12.7,12.7,81,0.00,CLR,,0.00,WeatherDisplay:10.37,2013-08-24 16:31:00,
2013-08-24 11:36:00,84.9,76.9,29.97,NNE,14,9.4,9.4,77,0.00,CLR,,0.00,WeatherDisplay:10.37,2013-08-24 16:36:00,
2013-08-24 11:41:00,86.2,77.7,29.97,North,0,13.8,13.8,76,0.00,CLR,,0.00,WeatherDisplay:10.37,2013-08-24 16:41:00,
2013-08-24 11:46:00,86.2,78.5,29.97,ENE,63,13.8,13.8,78,0.00,CLR,,0.00,WeatherDisplay:10.37,2013-08-24 16:46:00,
2013-08-24 11:51:00,86.0,79.1,29.97,NE,39,12.7,12.7,80,0.00,CLR,,0.00,WeatherDisplay:10.37,2013-08-24 16:51:00,
2013-08-24 11:56:00,85.6,78.7,29.97,NNE,20,11.5,11.5,80,0.00,CLR,,0.00,WeatherDisplay:10.37,2013-08-24 16:56:00,
2013-08-24 12:01:00,85.9,79.0,29.98,NNW,341,8.1,8.1,80,0.00,CLR,,0.00,WeatherDisplay:10.37,2013-08-24 17:01:00,
2013-08-24 12:06:00,86.2,78.9,29.97,NNE,30,15.0,15.0,79,0.00,CLR,,0.00,WeatherDisplay:10.37,2013-08-24 17:06:00,
2013-08-24 12:11:00,87.1,79.0,29.97,NNE,30,4.6,4.8,77,0.00,CLR,,0.00,WeatherDisplay:10.37,2013-08-24 17:11:00,
2013-08-24 12:16:00,86.8,78.3,29.97,NE,50,6.9,6.9,76,0.00,CLR,,0.00,WeatherDisplay:10.37,2013-08-24 17:16:00,
2013-08-24 12:21:00,87.1,78.6,29.97,NE,40,5.8,5.8,76,0.00,CLR,,0.00,WeatherDisplay:10.37,2013-08-24 17:21:00,
2013-08-24 12:26:00,87.0,78.1,29.97,NNE,21,13.8,13.8,75,0.00,CLR,,0.00,WeatherDisplay:10.37,2013-08-24 17:26:00,
2013-08-24 12:31:00,87.2,78.7,29.97,ENE,70,16.1,16.1,76,0.00,CLR,,0.00,WeatherDisplay:10.37,2013-08-24 17:31:00,
2013-08-24 12:36:00,87.8,78.1,29.97,East,89,16.1,16.1,73,0.00,CLR,,0.00,WeatherDisplay:10.37,2013-08-24 17:36:00,
2013-08-24 12:41:00,88.3,77.3,29.97,East,79,11.5,11.5,70,0.00,CLR,,0.00,WeatherDisplay:10.37,2013-08-24 17:41:00,
2013-08-24 12:46:00,88.0,77.4,29.97,ENE,64,16.1,16.1,71,0.00,CLR,,0.00,WeatherDisplay:10.37,2013-08-24 17:46:00,
2013-08-24 12:51:00,88.3,77.7,29.97,NNE,33,11.5,11.5,71,0.00,CLR,,0.00,WeatherDisplay:10.37,2013-08-24 17:51:00,
2013-08-24 12:56:00,88.1,77.9,29.97,ENE,65,17.3,17.3,72,0.00,CLR,,0.00,WeatherDisplay:10.37,2013-08-24 17:56:00,
2013-08-24 13:01:00,87.7,78.0,29.97,NNE,15,13.8,13.8,73,0.00,CLR,,0.00,WeatherDisplay:10.37,2013-08-24 18:01:00,
2013-08-24 13:06:00,87.1,78.2,29.97,ENE,65,6.3,6.3,75,0.00,CLR,,0.00,WeatherDisplay:10.37,2013-08-24 18:06:00,
2013-08-24 13:11:00,87.4,78.5,29.97,NE,40,11.5,11.5,75,0.00,CLR,,0.00,WeatherDisplay:10.37,2013-08-24 18:11:00,
2013-08-24 13:16:00,87.9,79.0,29.98,ESE,104,13.8,13.8,75,0.00,CLR,,0.00,WeatherDisplay:10.37,2013-08-24 18:16:00,
2013-08-24 13:21:00,87.7,78.8,29.97,NE,41,17.3,17.3,75,0.00,CLR,,0.00,WeatherDisplay:10.37,2013-08-24 18:21:00,
2013-08-24 13:26:00,87.3,78.8,29.97,NNE,12,13.7,13.7,76,0.00,CLR,,0.00,WeatherDisplay:10.37,2013-08-24 18:26:00,
2013-08-24 13:31:00,87.5,79.0,29.97,North,11,13.8,13.8,76,0.00,CLR,,0.00,WeatherDisplay:10.37,2013-08-24 18:31:00,
2013-08-24 13:36:00,87.8,78.5,29.97,NE,36,12.7,12.7,74,0.00,CLR,,0.00,WeatherDisplay:10.37,2013-08-24 18:36:00,
2013-08-24 13:41:00,87.8,78.5,29.96,NNE,16,17.3,17.3,74,0.00,CLR,,0.00,WeatherDisplay:10.37,2013-08-24 18:41:00,
2013-08-24 13:46:00,87.8,78.5,29.97,ENE,73,10.4,10.4,74,0.00,CLR,,0.00,WeatherDisplay:10.37,2013-08-24 18:46:00,
2013-08-24 13:51:00,87.5,77.8,29.97,NE,37,16.1,16.1,73,0.00,CLR,,0.00,WeatherDisplay:10.37,2013-08-24 18:51:00,
2013-08-24 13:56:00,87.7,78.4,29.96,ENE,60,15.0,15.0,74,0.00,CLR,,0.00,WeatherDisplay:10.37,2013-08-24 18:56:00,
2013-08-24 14:01:00,88.2,78.4,29.96,ENE,59,13.8,13.8,73,0.00,CLR,,0.00,WeatherDisplay:10.37,2013-08-24 19:01:00,
2013-08-24 14:06:00,88.7,78.9,29.96,NE,44,16.1,16.1,73,0.00,CLR,,0.00,WeatherDisplay:10.37,2013-08-24 19:06:00,
2013-08-24 14:11:00,88.6,78.4,29.96,East,99,17.3,17.3,72,0.00,CLR,,0.00,WeatherDisplay:10.37,2013-08-24 19:11:00,
2013-08-24 14:16:00,88.7,78.1,29.96,ENE,59,15.0,15.0,71,0.00,CLR,,0.00,WeatherDisplay:10.37,2013-08-24 19:16:00,
2013-08-24 14:21:00,88.8,79.0,29.96,NNE,15,9.2,9.2,73,0.00,CLR,,0.00,WeatherDisplay:10.37,2013-08-24 19:21:00,
2013-08-24 14:26:00,88.8,79.0,29.95,ENE,76,12.7,12.7,73,0.00,CLR,,0.00,WeatherDisplay:10.37,2013-08-24 19:26:00,
2013-08-24 14:31:00,88.3,79.0,29.95,ENE,74,12.7,12.7,74,0.00,CLR,,0.00,WeatherDisplay:10.37,2013-08-24 19:31:00,
2013-08-24 14:36:00,87.9,79.0,29.95,East,93,12.7,12.7,75,0.00,CLR,,0.00,WeatherDisplay:10.37,2013-08-24 19:36:00,
2013-08-24 14:41:00,87.8,78.5,29.94,NNE,17,10.4,10.4,74,0.00,CLR,,0.00,WeatherDisplay:10.37,2013-08-24 19:41:00,
2013-08-24 14:46:00,87.6,78.3,29.94,SE,126,10.4,10.4,74,0.00,CLR,,0.00,WeatherDisplay:10.37,2013-08-24 19:46:00,
2013-08-24 14:51:00,87.9,78.2,29.94,North,1,11.5,11.5,73,0.00,CLR,,0.00,WeatherDisplay:10.37,2013-08-24 19:51:00,
2013-08-24 14:56:00,88.3,78.1,29.94,ENE,61,13.8,13.8,72,0.00,CLR,,0.00,WeatherDisplay:10.37,2013-08-24 19:56:00,
2013-08-24 15:01:00,88.8,77.7,29.94,NNE,32,17.3,17.3,70,0.00,CLR,,0.00,WeatherDisplay:10.37,2013-08-24 20:01:00,
2013-08-24 15:06:00,88.8,77.7,29.94,NNE,30,12.7,12.7,70,0.00,CLR,,0.00,WeatherDisplay:10.37,2013-08-24 20:06:00,
2013-08-24 15:11:00,89.1,78.5,29.93,East,83,11.5,11.5,71,0.00,CLR,,0.00,WeatherDisplay:10.37,2013-08-24 20:11:00,
2013-08-24 15:16:00,89.3,79.1,29.93,East,79,11.5,11.5,72,0.00,CLR,,0.00,WeatherDisplay:10.37,2013-08-24 20:16:00,
2013-08-24 15:21:00,89.5,79.3,29.93,East,79,13.8,13.8,72,0.00,CLR,,0.00,WeatherDisplay:10.37,2013-08-24 20:21:00,
2013-08-24 15:26:00,88.9,78.3,29.93,NE,46,12.7,12.7,71,0.00,CLR,,0.00,WeatherDisplay:10.37,2013-08-24 20:26:00,
2013-08-24 15:31:00,88.5,78.3,29.93,ENE,57,12.7,12.7,72,0.00,CLR,,0.00,WeatherDisplay:10.37,2013-08-24 20:31:00,
2013-08-24 15:36:00,88.7,79.3,29.93,East,79,8.1,8.1,74,0.00,CLR,,0.00,WeatherDisplay:10.37,2013-08-24 20:36:00,
2013-08-24 15:41:00,88.9,79.1,29.93,NNE,30,15.0,15.0,73,0.00,CLR,,0.00,WeatherDisplay:10.37,2013-08-24 20:41:00,
2013-08-24 15:46:00,88.4,78.6,29.93,ENE,75,13.8,13.8,73,0.00,CLR,,0.00,WeatherDisplay:10.37,2013-08-24 20:46:00,
2013-08-24 15:51:00,88.5,78.7,29.93,East,79,17.3,17.3,73,0.00,CLR,,0.00,WeatherDisplay:10.37,2013-08-24 20:51:00,
2013-08-24 15:56:00,88.7,78.5,29.93,NE,56,11.5,11.5,72,0.00,CLR,,0.00,WeatherDisplay:10.37,2013-08-24 20:56:00,
2013-08-24 16:01:00,88.7,78.5,29.92,East,83,16.1,16.1,72,0.00,CLR,,0.00,WeatherDisplay:10.37,2013-08-24 21:01:00,
2013-08-24 16:06:00,88.7,78.5,29.92,NE,49,15.0,15.0,72,0.00,CLR,,0.00,WeatherDisplay:10.37,2013-08-24 21:06:00,
2013-08-24 16:11:00,88.1,77.5,29.92,NNE,27,13.8,13.8,71,0.00,CLR,,0.00,WeatherDisplay:10.37,2013-08-24 21:11:00,
2013-08-24 16:16:00,88.4,77.8,29.92,East,93,8.1,8.1,71,0.00,CLR,,0.00,WeatherDisplay:10.37,2013-08-24 21:16:00,
2013-08-24 16:21:00,88.6,77.1,29.92,ENE,63,12.7,12.7,69,0.00,CLR,,0.00,WeatherDisplay:10.37,2013-08-24 21:21:00,
2013-08-24 16:26:00,88.6,77.6,29.92,NE,44,12.7,12.7,70,0.00,CLR,,0.00,WeatherDisplay:10.37,2013-08-24 21:26:00,
2013-08-24 16:31:00,88.5,77.9,29.92,NE,54,15.0,15.0,71,0.00,CLR,,0.00,WeatherDisplay:10.37,2013-08-24 21:31:00,
2013-08-24 16:36:00,88.2,78.0,29.92,ENE,72,13.8,13.8,72,0.00,CLR,,0.00,WeatherDisplay:10.37,2013-08-24 21:36:00,
2013-08-24 16:41:00,87.9,78.2,29.91,ENE,64,12.7,12.7,73,0.00,CLR,,0.00,WeatherDisplay:10.37,2013-08-24 21:41:00,
2013-08-24 16:46:00,87.9,78.6,29.91,East,89,11.6,11.6,74,0.00,CLR,,0.00,WeatherDisplay:10.37,2013-08-24 21:46:00,
2013-08-24 16:51:00,87.8,78.5,29.91,ENE,60,15.0,15.0,74,0.00,CLR,,0.00,WeatherDisplay:10.37,2013-08-24 21:51:00,
2013-08-24 16:56:00,87.8,78.5,29.91,ENE,77,13.8,13.8,74,0.00,CLR,,0.00,WeatherDisplay:10.37,2013-08-24 21:56:00,
2013-08-24 17:01:00,87.6,78.3,29.91,East,82,15.0,15.0,74,0.00,CLR,,0.00,WeatherDisplay:10.37,2013-08-24 22:01:00,
2013-08-24 17:06:00,87.4,78.5,29.91,NE,53,17.3,17.3,75,0.00,CLR,,0.00,WeatherDisplay:10.37,2013-08-24 22:06:00,
2013-08-24 17:11:00,87.3,78.8,29.91,ESE,116,15.0,15.0,76,0.00,CLR,,0.00,WeatherDisplay:10.37,2013-08-24 22:11:00,
2013-08-24 17:16:00,87.2,79.1,29.91,SE,126,15.0,15.0,77,0.00,CLR,,0.00,WeatherDisplay:10.37,2013-08-24 22:16:00,
2013-08-24 17:21:00,87.3,79.2,29.91,East,90,10.4,10.4,77,0.00,CLR,,0.00,WeatherDisplay:10.37,2013-08-24 22:21:00,
2013-08-24 17:26:00,87.2,78.7,29.91,East,82,16.1,16.1,76,0.00,CLR,,0.00,WeatherDisplay:10.37,2013-08-24 22:26:00,
2013-08-24 17:31:00,87.1,79.0,29.91,East,96,10.4,10.4,77,0.00,CLR,,0.00,WeatherDisplay:10.37,2013-08-24 22:31:00,
2013-08-24 17:36:00,87.3,79.2,29.91,East,82,13.8,13.8,77,0.00,CLR,,0.00,WeatherDisplay:10.37,2013-08-24 22:36:00,
2013-08-24 17:41:00,87.2,79.1,29.90,East,82,15.0,15.0,77,0.00,CLR,,0.00,WeatherDisplay:10.37,2013-08-24 22:41:00,
2013-08-24 17:46:00,87.2,78.7,29.90,ENE,75,10.4,10.4,76,0.00,CLR,,0.00,WeatherDisplay:10.37,2013-08-24 22:46:00,
2013-08-24 17:51:00,87.1,78.6,29.90,NE,55,14.7,14.7,76,0.00,CLR,,0.00,WeatherDisplay:10.37,2013-08-24 22:51:00,
2013-08-24 17:56:00,87.1,79.4,29.90,SE,133,12.7,12.7,78,0.00,CLR,,0.00,WeatherDisplay:10.37,2013-08-24 22:56:00,
2013-08-24 18:01:00,86.9,79.2,29.90,East,91,12.7,12.7,78,0.00,CLR,,0.00,WeatherDisplay:10.37,2013-08-24 23:01:00,
2013-08-24 18:06:00,86.7,79.0,29.90,East,98,11.5,11.5,78,0.00,CLR,,0.00,WeatherDisplay:10.37,2013-08-24 23:06:00,
2013-08-24 18:11:00,86.7,79.0,29.90,SE,124,11.5,11.5,78,0.00,CLR,,0.00,WeatherDisplay:10.37,2013-08-24 23:11:00,
2013-08-24 18:16:00,86.6,78.9,29.90,ESE,107,10.4,10.4,78,0.00,CLR,,0.00,WeatherDisplay:10.37,2013-08-24 23:16:00,
2013-08-24 18:21:00,86.5,78.8,29.90,NE,48,10.4,10.4,78,0.00,CLR,,0.00,WeatherDisplay:10.37,2013-08-24 23:21:00,
2013-08-24 18:26:00,86.5,79.2,29.90,East,99,10.4,10.4,79,0.00,CLR,,0.00,WeatherDisplay:10.37,2013-08-24 23:26:00,
2013-08-24 18:31:00,86.3,79.0,29.90,ESE,107,12.7,12.7,79,0.00,CLR,,0.00,WeatherDisplay:10.37,2013-08-24 23:31:00,
2013-08-24 18:36:00,86.2,78.9,29.90,NE,54,8.1,8.1,79,0.00,CLR,,0.00,WeatherDisplay:10.37,2013-08-24 23:36:00,
2013-08-24 18:41:00,85.8,78.5,29.90,ESE,112,9.2,9.2,79,0.00,CLR,,0.00,WeatherDisplay:10.37,2013-08-24 23:41:00,
2013-08-24 18:46:00,85.6,78.7,29.90,ESE,123,6.3,6.3,80,0.00,CLR,,0.00,WeatherDisplay:10.37,2013-08-24 23:46:00,
2013-08-24 18:51:00,85.5,78.6,29.90,NNE,24,12.7,12.7,80,0.00,CLR,,0.00,WeatherDisplay:10.37,2013-08-24 23:51:00,
2013-08-24 18:56:00,85.1,78.6,29.90,East,84,6.9,6.9,81,0.00,CLR,,0.00,WeatherDisplay:10.37,2013-08-24 23:56:00,
2013-08-24 19:01:00,84.7,78.6,29.90,SE,124,10.4,10.4,82,0.00,CLR,,0.00,WeatherDisplay:10.37,2013-08-25 00:01:00,
2013-08-24 19:06:00,84.5,78.0,29.90,ESE,105,11.5,11.5,81,0.00,CLR,,0.00,WeatherDisplay:10.37,2013-08-25 00:06:00,
2013-08-24 19:11:00,84.6,78.5,29.90,ENE,70,10.5,10.5,82,0.00,CLR,,0.00,WeatherDisplay:10.37,2013-08-25 00:11:00,
2013-08-24 19:16:00,84.6,78.5,29.90,NE,49,5.8,5.8,82,0.00,CLR,,0.00,WeatherDisplay:10.37,2013-08-25 00:16:00,
2013-08-24 19:21:00,84.5,78.8,29.90,ENE,70,13.8,13.8,83,0.00,CLR,,0.00,WeatherDisplay:10.37,2013-08-25 00:21:00,
2013-08-24 19:26:00,84.2,78.8,29.90,East,101,16.1,16.1,84,0.00,CLR,,0.00,WeatherDisplay:10.37,2013-08-25 00:26:00,
2013-08-24 19:31:00,84.1,78.7,29.91,SE,134,6.9,6.9,84,0.00,CLR,,0.00,WeatherDisplay:10.37,2013-08-25 00:31:00,
2013-08-24 19:36:00,83.8,78.4,29.91,East,95,13.8,13.8,84,0.00,CLR,,0.00,WeatherDisplay:10.37,2013-08-25 00:36:00,
2013-08-24 19:41:00,83.7,78.3,29.91,East,91,9.2,9.2,84,0.00,CLR,,0.00,WeatherDisplay:10.37,2013-08-25 00:41:00,
2013-08-24 19:46:00,83.5,78.2,29.91,East,86,6.9,6.9,84,0.00,CLR,,0.00,WeatherDisplay:10.37,2013-08-25 00:46:00,
2013-08-24 19:51:00,83.4,78.4,29.91,ENE,77,6.9,6.9,85,0.00,CLR,,0.00,WeatherDisplay:10.37,2013-08-25 00:51:00,
2013-08-24 19:56:00,83.3,78.3,29.91,East,86,6.9,6.9,85,0.00,CLR,,0.00,WeatherDisplay:10.37,2013-08-25 00:56:00,
2013-08-24 20:01:00,83.2,78.2,29.91,ENE,59,5.8,5.8,85,0.00,CLR,,0.00,WeatherDisplay:10.37,2013-08-25 01:01:00,
2013-08-24 20:06:00,83.2,78.2,29.91,East,80,10.4,10.4,85,0.00,CLR,,0.00,WeatherDisplay:10.37,2013-08-25 01:06:00,
2013-08-24 20:11:00,83.1,78.5,29.91,East,81,10.4,10.4,86,0.00,CLR,,0.00,WeatherDisplay:10.37,2013-08-25 01:11:00,
2013-08-24 20:16:00,83.1,78.5,29.91,ENE,69,5.8,5.8,86,0.00,CLR,,0.00,WeatherDisplay:10.37,2013-08-25 01:16:00,
2013-08-24 20:21:00,83.1,78.5,29.91,East,84,5.8,5.8,86,0.00,CLR,,0.00,WeatherDisplay:10.37,2013-08-25 01:21:00,
2013-08-24 20:26:00,83.1,78.5,29.91,ENE,71,5.8,5.8,86,0.00,CLR,,0.00,WeatherDisplay:10.37,2013-08-25 01:26:00,
2013-08-24 20:31:00,82.9,78.3,29.91,East,98,15.0,15.0,86,0.00,CLR,,0.00,WeatherDisplay:10.37,2013-08-25 01:31:00,
2013-08-24 20:36:00,82.9,78.3,29.91,ENE,75,11.5,11.5,86,0.00,CLR,,0.00,WeatherDisplay:10.37,2013-08-25 01:36:00,
2013-08-24 20:41:00,82.9,78.3,29.92,NE,52,8.1,8.1,86,0.00,CLR,,0.00,WeatherDisplay:10.37,2013-08-25 01:41:00,
2013-08-24 20:46:00,82.8,78.2,29.92,ENE,68,12.7,12.7,86,0.00,CLR,,0.00,WeatherDisplay:10.37,2013-08-25 01:46:00,
2013-08-24 20:51:00,82.8,77.8,29.93,ESE,117,8.1,8.1,85,0.00,CLR,,0.00,WeatherDisplay:10.37,2013-08-25 01:51:00,
2013-08-24 20:56:00,82.8,77.8,29.93,East,89,12.7,12.7,85,0.00,CLR,,0.00,WeatherDisplay:10.37,2013-08-25 01:56:00,
2013-08-24 21:01:00,82.9,77.9,29.93,ENE,77,10.4,10.4,85,0.00,CLR,,0.00,WeatherDisplay:10.37,2013-08-25 02:01:00,
2013-08-24 21:06:00,82.9,78.3,29.93,ENE,74,5.8,5.8,86,0.00,CLR,,0.00,WeatherDisplay:10.37,2013-08-25 02:06:00,
2013-08-24 21:11:00,82.9,78.3,29.94,ENE,63,5.8,5.8,86,0.00,CLR,,0.00,WeatherDisplay:10.37,2013-08-25 02:11:00,
2013-08-24 21:16:00,82.8,78.2,29.94,East,98,4.6,4.6,86,0.00,CLR,,0.00,WeatherDisplay:10.37,2013-08-25 02:16:00,
2013-08-24 21:21:00,82.6,77.6,29.94,East,84,12.7,12.7,85,0.00,CLR,,0.00,WeatherDisplay:10.37,2013-08-25 02:21:00,
2013-08-24 21:26:00,82.7,78.1,29.94,ENE,72,9.2,9.2,86,0.00,CLR,,0.00,WeatherDisplay:10.37,2013-08-25 02:26:00,
2013-08-24 21:31:00,82.7,78.1,29.94,East,89,4.6,4.6,86,0.00,CLR,,0.00,WeatherDisplay:10.37,2013-08-25 02:31:00,
2013-08-24 21:36:00,82.6,78.0,29.94,ESE,102,9.2,9.2,86,0.00,CLR,,0.00,WeatherDisplay:10.37,2013-08-25 02:36:00,
2013-08-24 21:41:00,82.6,78.0,29.94,East,82,5.8,5.8,86,0.00,CLR,,0.00,WeatherDisplay:10.37,2013-08-25 02:41:00,
2013-08-24 21:46:00,82.5,78.2,29.94,ENE,78,5.8,5.8,87,0.00,CLR,,0.00,WeatherDisplay:10.37,2013-08-25 02:46:00,
2013-08-24 21:51:00,82.5,78.2,29.94,East,91,10.4,10.4,87,0.00,CLR,,0.00,WeatherDisplay:10.37,2013-08-25 02:51:00,
2013-08-24 21:56:00,82.5,78.2,29.94,ENE,73,10.4,10.4,87,0.00,CLR,,0.00,WeatherDisplay:10.37,2013-08-25 02:56:00,
2013-08-24 22:01:00,82.5,78.2,29.94,East,89,6.9,6.9,87,0.00,CLR,,0.00,WeatherDisplay:10.37,2013-08-25 03:01:00,
2013-08-24 22:06:00,82.4,78.1,29.94,NE,51,6.9,6.9,87,0.00,CLR,,0.00,WeatherDisplay:10.37,2013-08-25 03:06:00,
2013-08-24 22:11:00,82.2,77.9,29.94,ENE,76,11.5,11.5,87,0.00,CLR,,0.00,WeatherDisplay:10.37,2013-08-25 03:11:00,
2013-08-24 22:16:00,82.2,77.9,29.94,ENE,72,10.4,10.4,87,0.00,CLR,,0.00,WeatherDisplay:10.37,2013-08-25 03:16:00,
2013-08-24 22:21:00,82.2,77.9,29.95,East,101,5.8,5.8,87,0.00,CLR,,0.00,WeatherDisplay:10.37,2013-08-25 03:21:00,
2013-08-24 22:26:00,82.0,77.7,29.95,East,79,6.9,6.9,87,0.00,CLR,,0.00,WeatherDisplay:10.37,2013-08-25 03:26:00,
2013-08-24 22:31:00,82.0,77.7,29.95,East,79,5.8,5.8,87,0.00,CLR,,0.00,WeatherDisplay:10.37,2013-08-25 03:31:00,
2013-08-24 22:36:00,81.9,78.0,29.95,ENE,70,6.9,6.9,88,0.00,CLR,,0.00,WeatherDisplay:10.37,2013-08-25 03:36:00,
2013-08-24 22:41:00,81.9,78.0,29.96,East,87,10.4,10.4,88,0.00,CLR,,0.00,WeatherDisplay:10.37,2013-08-25 03:41:00,
2013-08-24 22:46:00,81.9,78.0,29.96,ENE,66,5.8,5.8,88,0.00,CLR,,0.00,WeatherDisplay:10.37,2013-08-25 03:46:00,
2013-08-24 22:51:00,81.8,77.9,29.96,East,89,4.6,4.6,88,0.00,CLR,,0.00,WeatherDisplay:10.37,2013-08-25 03:51:00,
2013-08-24 22:56:00,81.7,77.8,29.96,ENE,71,4.6,4.6,88,0.00,CLR,,0.00,WeatherDisplay:10.37,2013-08-25 03:56:00,
2013-08-24 23:01:00,81.7,77.8,29.96,ENE,78,4.6,4.6,88,0.00,CLR,,0.00,WeatherDisplay:10.37,2013-08-25 04:01:00,
2013-08-24 23:03:00,81.7,77.8,29.96,East,82,5.8,5.8,88,0.00,CLR,,0.00,WeatherDisplay:10.37,2013-08-25 04:03:00,
2013-08-24 23:08:00,81.6,77.7,29.96,East,82,5.8,5.8,88,0.00,CLR,,0.00,WeatherDisplay:10.37,2013-08-25 04:08:00,
2013-08-24 23:13:00,81.7,77.8,29.96,ESE,102,3.5,3.5,88,0.00,CLR,,0.00,WeatherDisplay:10.37,2013-08-25 04:13:00,
2013-08-24 23:18:00,81.5,77.6,29.96,East,94,3.5,3.5,88,0.00,CLR,,0.00,WeatherDisplay:10.37,2013-08-25 04:18:00,
2013-08-24 23:23:00,81.5,77.6,29.96,East,88,3.5,3.5,88,0.00,CLR,,0.00,WeatherDisplay:10.37,2013-08-25 04:23:00,
2013-08-24 23:28:00,81.4,77.5,29.96,East,97,3.5,3.5,88,0.00,CLR,,0.00,WeatherDisplay:10.37,2013-08-25 04:28:00,
2013-08-24 23:33:00,81.3,77.4,29.95,East,84,3.5,3.5,88,0.00,CLR,,0.00,WeatherDisplay:10.37,2013-08-25 04:33:00,
2013-08-24 23:38:00,81.3,77.4,29.95,ENE,72,5.8,5.8,88,0.00,CLR,,0.00,WeatherDisplay:10.37,2013-08-25 04:38:00,
2013-08-24 23:43:00,81.3,77.4,29.96,East,84,3.5,3.5,88,0.00,CLR,,0.00,WeatherDisplay:10.37,2013-08-25 04:43:00,
2013-08-24 23:48:00,81.2,77.3,29.96,ENE,74,4.6,4.6,88,0.00,CLR,,0.00,WeatherDisplay:10.37,2013-08-25 04:48:00,
2013-08-24 23:53:00,81.1,77.2,29.96,East,86,3.5,3.5,88,0.00,CLR,,0.00,WeatherDisplay:10.37,2013-08-25 04:53:00,
2013-08-24 23:58:00,81.1,77.2,29.96,ENE,68,3.5,3.5,88,0.00,CLR,,0.00,WeatherDisplay:10.37,2013-08-25 04:58:00,